CZ-3C DEB, 40198

Orbit data source: Space-Track

CZ-3C DEB, 40198 is space debris in HEO originally from a launch on Fri, 24 Feb 2012 UTC launched from the Xichang Space Center, China (XSC). Debris objects in space refer to the collection of defunct objects orbiting the Earth. Examples of debris include non-operational satellites, rocket bodies, and fragments generated from explosions, collisions, or faulty payload assembly.

Loading next visibility...
Identifier
40198, 2012-008H
Orbit
HEO
Country
Flag of CNCN / PRC
Related business
Manufacturer
CALT
Mission
Spacecraft
Bus & Motor
Unknown
Mass
Unknown
Launch date (UTC)
2012-02-24 (14 years ago)
Launch vehicle
Unknown
Launch site
Xichang Space Center, China (XSC)
Object type
Payload
Rocket body
Debris
Shape & HBR
Unknown shape, 0.3 m
Radar Cross Section
Medium (>0.1 m² and <1 m²)

Expand to show TLE details & history
Last TLE update: 1 day ago

TLE from 1 day ago
0 CZ-3C DEB
1 40198U 12008H   26034.17112332 -.00000016  00000-0  27897-3 0  9992
2 40198  19.5496  53.0466 7258352 186.1653 153.7360  2.18836638 96672
Epoch: 2026-02-03T04:06Z
TLE epoch observation values (Epoch: 2026-02-03T04:06:25.054Z)
Latitude
-0.00001°
Longitude
-141.8919°
Altitude
36,191.368 km
Speed
1.68 km/s
True Right ascension
03h 32m 16s
True Declination
0° 00' 00"
Sunlit
Object was in daylight at epoch
Visualization orbit readout
Latitude
Unknown
Longitude
Unknown
Altitude
Unknown
Speed
Unknown
Apparent Right ascension
Unknown
Apparent Declination
Unknown
Sunlit
N/A
Visualization observer readout
Local Sidereal Time
09:02:49
Azimuth
Unknown
Elevation
Unknown
Doppler factor
Unknown
Orbital elements
Apogee altitude
36,879.813 km
Perigee altitude
493.786 km
Semi-major axis
25,064.937 km
Eccentricity
0.72584
Inclination
19.5496°
RAAN
53.0466°
Arg. of periapsis
186.1653°
True anomaly
173.87353°
Mean anomaly
153.736°
Eccentric anomaly
164.70574°
Mean motion
0.54694 °/min
Orbital period
658.2 mins
BSTAR
0.00027897
Loading maneuver chart data...
Computing Atmospheric mass density...
Loading historical data...
Loading historical data...
Loading historical data...
Loading historical data...
Loading historical data...
Loading historical data...
Loading historical data...

Documentation

Showing up to 5 results
|